Location: Sternwarte Stuttgart
(48.7670°N, 9.1830°E)
Time: 21:56:47
(UTC+01:00)

Lacrosse 5 rocket - Pass Details

Date: 24 January 2019
Orbit: 469 x 630 km, 57.0° (Epoch: 06 February)

Event Time Altitude Azimuth Distance (km) Brightness Sun altitude
Exits shadow 06:42:33 20° 276° (W) 1,371 2.7 -13.2°
Maximum altitude 06:45:11 43° 338° (NNW) 854 2.0 -12.8°
Drops below altitude 10° 06:49:31 10° 50° (NE) 1,986 4.6 -12.1°
Sets 06:51:57 0° 57° (ENE) 2,908 5.7 -11.7°
